Location: Bucharest
(44.4268°N, 26.1025°E)
Time: 14:12:06
(UTC+02:00)

COSMOS 2251 DEB - Visible Passes

Search period start: 08 December 2022 00:00
Search period end: 18 December 2022 00:00
Orbit: 584 x 676 km, 74.0° (Epoch: 05 December)

Date Brightness Start Highest point End Pass type
(mag) Time Alt. Az. Time Alt. Az. Time Alt. Az.
08 Dec ? 04:39:24 35° ENE 04:39:24 35° ENE 04:42:42 10° NE visible
08 Dec ? 06:16:54 22° WNW 06:17:43 23° WNW 06:21:20 10° N visible
09 Dec ? 05:01:39 27° NNE 05:01:39 27° NNE 05:03:42 10° NNE visible
09 Dec ? 06:39:06 13° NW 06:39:06 13° NW 06:40:55 10° NNW visible
10 Dec ? 05:23:14 17° N 05:23:14 17° N 05:24:20 10° N visible
11 Dec ? 05:44:28 10° N 05:44:28 10° N 05:44:33 10° N visible
